Regional Weather Roundup
Issued by NWS

Home | Current Version | Previous Version | Text Only | Print | Product List | Glossary On
Versions: 1 2 3 4 5 6 7 8 9 10 11 12 13 14 15 16 17 18 19 20 21 22 23 24 25 26 27 28 29 30 31 32 33 34 35 36 37 38 39 40 41 42 43 44 45 46 47 48 49 50
000
ASPQ40 PGUM 101712
RWRPQ
WEATHER ROUNDUP FOR THE MARIANAS AND MICRONESIA
NATIONAL WEATHER SERVICE TIYAN GU
300 AM CHST SUN DEC 11 2016

GUZ001>004-101800-
MARIANA ISLANDS-

CITY           SKY/WX    TMP DP  RH WIND       PRES   REMARKS
GUAM AIRPORT   CLEAR     79  73  83 E5        29.79F
ANDERSEN AFB   CLEAR     77  73  88 E10       29.80F
ROTA AIRPORT   NOT AVBL
TINIAN AP      NOT AVBL
SAIPAN AP      PTCLDY    79  73  83 E8        29.81F

$$

PMZ161-101800-
REPUBLIC OF PALAU-

CITY           SKY/WX    TMP DP  RH WIND       PRES   REMARKS
KOROR AP       MOCLDY    79  77  94 NE5       29.77S
KOROR WSO      CLOUDY    81  75  83 NE5       29.78F

$$

PMZ171>174-101800-
FEDERATED STATES OF MICRONESIA-

CITY           SKY/WX    TMP DP  RH WIND       PRES   REMARKS
YAP AIRPORT    CLOUDY    81  75  83 VRB6      29.76S
CHUUK AP       MOCLDY    81  77  89 VRB3      29.73F
POHNPEI AP     MOCLDY    79  75  89 S5        29.73F
POHNPEI WSO    MOCLDY    73  72  94 E6        29.77R
KOSRAE AP      CLOUDY    81  75  83 W10       29.72R

$$

PMZ181-101800-
REPUBLIC OF THE MARSHALL ISLANDS-

CITY           SKY/WX    TMP DP  RH WIND       PRES   REMARKS
KWAJALEIN AP   MOCLDY    79  77  94 E16       29.76S
MAJURO AP      NOT AVBL
MAJURO WSO     MOCLDY    81  75  83 E10       29.77R

$$




USA.gov is the U.S. government's official web portal to all federal, state and local government web resources and services.